Location: Schommer Observatory
(40.5200°N, 74.4500°W)
Time: 11:50:23
(UTC-04:00)

Tiangong 2 - Pass Details

Date: 11 October 2017
Orbit: 388 x 391 km, 42.8° (Epoch: 21 October)

Event Time Altitude Azimuth Distance (km) Brightness Sun altitude
Exits shadow 04:38:49 16° 92° (E) 1,138 4.2 -28.3°
Drops below altitude 10° 04:39:36 10° 85° (E) 1,421 4.9 -28.2°
Sets 04:41:46 0° 76° (ENE) 2,279 6.3 -27.8°
